Wind_Speed
72 70 70 70 69 66 65 64 61 59 58 57 56 50 44 42 37 31 34 41 41 42 44 46 50 55 58 64 70 72 72 72 70 69 68 65 63 61 60 61 61 60 60 61 61 57 55 55 54 53 51 50 49 49 47 46 46 46 45 44 45 45 45 46 48 48 45 44 44 44 44 45 45 45 45 45 46 48 49 51 53 54 55 56 57 58 58
76 74 73 73 73 71 69 68 65 62 60 57 55 55 53 47 36 32 37 40 39 42 45 46 48 51 52 57 63 67 71 73 73 73 71 69 68 65 63 63 63 63 62 62 62 60 58 57 57 56 54 53 53 52 50 49 48 47 46 46 46 47 47 49 50 50 48 47 47 46 46 46 46 46 47 47 48 49 50 52 53 55 57 58 58 59 60
80 77 75 75 76 75 74 74 70 66 63 59 57 57 57 51 42 39 40 38 36 40 45 46 47 49 49 51 55 59 64 69 74 76 74 73 72 69 67 66 66 65 64 64 63 62 61 60 59 58 56 55 54 53 52 52 51 50 48 46 47 49 50 51 51 51 50 49 49 48 48 48 48 48 48 48 49 50 51 52 54 57 59 60 60 61 61
83 79 78 78 77 78 81 78 71 67 66 63 59 57 57 54 50 49 45 37 35 42 47 45 44 46 47 48 52 55 58 63 70 75 77 76 74 73 72 71 70 69 68 67 65 64 64 63 62 61 59 57 56 54 54 54 53 51 49 48 49 51 53 52 52 53 52 51 51 50 50 50 49 49 49 50 51 51 52 53 55 58 60 61 62 62 63
86 82 81 80 80 85 84 72 66 68 69 65 61 58 58 56 55 55 49 40 41 47 46 42 42 44 46 48 51 54 56 58 63 69 74 76 76 76 76 75 74 73 72 70 68 66 66 64 63 62 61 59 58 57 56 55 54 52 52 52 52 53 54 54 54 54 54 53 53 52 52 51 51 50 51 51 52 53 54 56 57 60 62 63 64 64 65
89 85 84 84 88 89 79 69 70 75 73 69 66 64 61 60 58 57 52 47 48 48 42 40 42 44 45 47 50 53 55 57 58 61 66 71 76 78 79 78 77 77 76 74 72 70 68 66 65 64 63 62 60 58 57 56 55 55 54 54 54 54 55 56 55 56 56 55 55 54 54 53 52 52 53 54 54 55 56 58 60 62 63 65 66 67 68
94 90 88 90 92 85 75 72 77 79 77 77 76 72 68 64 60 57 55 51 46 44 42 41 43 44 44 44 46 49 52 55 57 57 58 63 69 75 79 81 80 79 79 77 75 74 71 69 68 67 65 64 62 60 58 57 57 56 56 56 55 55 56 57 58 57 57 57 57 56 55 55 55 55 55 56 57 57 58 60 62 64 65 67 69 69 70
100 96 94 94 91 83 76 76 77 78 81 83 82 79 75 68 62 59 58 55 47 42 42 44 45 46 45 45 46 48 49 50 54 57 57 58 62 67 73 78 81 82 81 80 78 76 74 73 72 71 69 66 64 63 61 59 58 58 58 57 57 57 58 59 59 58 58 58 58 58 58 58 58 58 58 59 59 59 60 63 65 66 67 68 70 71 71
105 101 99 97 92 85 82 80 78 80 85 85 85 85 80 72 65 61 60 59 54 48 45 47 48 48 48 49 49 48 48 49 51 55 58 59 59 62 67 73 77 81 82 82 80 78 77 76 76 75 74 71 69 67 64 62 61 60 60 59 59 59 59 59 60 61 60 60 61 62 62 60 60 61 61 61 61 61 63 65 67 68 69 70 71 72 72
110 105 103 101 96 91 87 85 83 83 85 86 87 87 83 76 68 63 62 62 58 54 52 51 50 50 52 54 51 48 48 50 51 53 57 60 60 61 64 68 72 77 81 84 84 82 80 80 79 79 78 76 73 71 69 66 65 63 61 61 61 61 60 61 62 63 62 64 65 66 64 63 63 63 63 63 63 64 66 67 69 70 71 72 73 73 72
113 109 106 103 100 96 93 91 88 86 88 89 89 88 85 78 71 67 66 65 62 59 58 57 55 54 55 55 53 52 51 51 51 53 55 58 60 60 61 63 65 69 74 80 84 84 83 82 82 81 81 80 78 76 74 71 69 65 62 62 63 64 64 64 64 64 66 68 68 67 66 66 66 66 65 65 66 66 68 70 71 72 73 75 76 75 73
115 112 110 106 103 101 99 97 92 90 90 91 90 89 85 78 72 71 69 68 67 65 63 61 59 58 59 58 57 57 55 53 51 52 53 55 58 60 60 60 61 63 67 72 77 81 83 84 85 85 85 83 82 80 77 74 69 65 64 65 67 67 67 66 65 66 69 70 69 68 68 68 68 68 67 67 68 70 72 73 74 75 77 79 79 78 76
117 114 113 109 105 103 102 100 96 94 93 92 90 89 85 78 75 75 73 71 71 69 66 65 64 62 62 63 63 62 59 56 54 53 53 54 56 59 61 61 60 61 63 66 69 74 79 82 84 87 87 86 85 83 81 77 71 69 70 71 71 70 69 69 69 70 72 71 70 70 71 71 70 68 67 68 71 72 73 74 76 78 79 81 81 80 77
119 118 117 113 108 106 106 104 100 95 92 91 91 89 85 80 78 77 76 74 72 70 69 69 68 67 65 64 66 65 61 59 58 56 56 56 56 59 61 62 62 61 62 63 65 67 72 75 78 83 87 87 87 86 85 81 77 76 77 76 74 73 72 72 73 73 73 72 71 72 73 72 70 68 68 69 70 71 72 74 75 75 75 76 74 68 63
123 122 120 116 112 108 104 103 102 100 96 93 92 89 85 81 81 79 77 76 74 71 71 72 71 70 68 66 66 65 63 62 60 57 57 57 57 59 60 62 64 63 61 62 62 63 66 69 73 79 83 86 88 87 86 84 82 81 81 80 77 76 75 75 76 76 75 73 72 73 73 72 69 68 67 65 64 65 66 66 65 65 65 64 57 48 48
125 123 120 118 116 111 103 98 98 99 98 96 93 89 85 82 81 80 79 77 76 74 74 75 74 72 70 66 64 64 63 61 59 57 56 57 58 60 60 61 63 63 62 62 61 61 63 65 68 72 77 81 85 86 86 86 86 86 85 83 81 79 77 77 78 78 76 74 74 74 73 72 69 68 67 63 59 57 56 57 58 56 55 52 47 47 53
124 121 116 112 110 108 104 101 99 95 91 90 88 86 85 83 81 80 79 78 79 79 78 77 77 74 70 65 63 62 61 60 59 59 58 57 58 60 61 61 62 62 62 62 62 61 61 62 64 67 70 74 78 81 82 84 87 88 87 85 84 82 81 81 81 79 77 75 75 74 74 73 70 67 65 61 56 53 52 52 52 52 49 47 51 56 62
117 115 112 105 96 94 91 88 89 89 86 84 82 78 79 82 82 80 80 79 80 81 80 79 79 76 70 65 63 61 60 58 57 55 55 56 58 60 62 63 63 63 62 62 62 62 62 61 61 63 65 67 69 72 77 79 80 81 81 82 85 86 86 86 84 81 77 75 74 75 75 73 69 66 64 62 58 56 52 47 49 51 46 46 55 61 66
108 103 103 97 88 86 85 78 75 77 77 77 78 75 74 77 78 78 79 80 80 79 79 78 78 75 70 67 65 62 59 55 53 51 52 55 59 60 62 63 64 64 63 63 63 63 61 60 59 60 62 64 64 65 69 71 71 70 71 78 87 92 91 89 85 81 77 74 73 74 75 73 68 67 68 67 62 56 52 52 54 48 42 48 59 64 68
106 96 92 89 84 84 86 84 80 77 74 73 74 73 72 74 75 77 78 79 79 78 78 78 77 74 72 69 66 63 60 58 56 55 55 57 59 61 61 62 63 63 63 63 62 61 60 59 58 57 59 61 62 63 65 67 70 71 74 79 86 89 90 89 85 79 75 73 72 72 73 72 67 63 64 65 60 55 55 58 55 46 46 57 63 66 68
105 97 90 92 91 85 82 86 89 85 79 76 75 74 74 75 77 78 79 80 80 79 78 79 78 75 73 70 67 64 63 61 59 58 57 57 59 60 61 61 62 62 61 61 60 58 58 57 57 56 56 57 59 62 64 66 69 73 77 80 81 82 83 82 79 75 73 71 68 67 68 67 63 61 62 63 60 56 55 58 57 53 56 66 69 68 67
101 97 92 96 100 93 87 90 94 90 85 83 81 79 78 77 77 77 77 76 76 76 76 77 76 74 72 70 67 65 64 61 58 56 56 56 57 60 61 61 61 60 59 58 56 56 56 56 55 55 55 54 55 58 61 65 67 71 76 81 83 81 77 73 72 68 64 64 65 65 66 66 67 67 67 64 60 58 59 61 62 60 62 70 74 71 67
97 95 93 94 97 95 92 93 93 90 86 83 81 79 77 74 72 69 68 68 68 70 71 72 71 69 67 64 63 63 61 59 56 54 55 55 56 58 61 61 60 59 57 56 55 54 53 53 53 52 52 52 54 55 58 62 64 66 70 75 80 81 74 69 66 58 50 57 70 71 69 69 70 70 68 63 60 62 65 65 66 65 68 74 77 76 74
98 95 91 88 87 88 88 86 84 82 81 80 79 75 71 68 66 62 60 61 62 63 64 65 64 64 62 60 59 59 58 57 56 55 55 56 56 58 60 60 59 57 55 55 55 53 51 50 49 48 47 48 50 51 54 57 58 61 64 67 72 73 70 69 68 59 54 63 75 74 70 70 69 69 68 61 59 64 68 68 70 72 74 78 81 82 83
99 95 91 87 85 85 83 79 77 76 75 76 75 71 65 64 64 61 57 58 60 60 60 61 60 59 59 57 56 56 57 56 56 56 56 57 58 59 58 58 57 55 54 54 53 51 50 48 45 41 38 37 39 42 46 48 50 53 55 58 62 65 66 69 68 61 60 68 72 68 67 70 71 72 68 60 59 66 69 70 73 76 78 80 82 83 84
97 95 91 88 87 86 85 82 77 72 69 71 72 67 62 62 65 64 59 56 57 58 59 60 58 56 55 54 54 55 57 57 57 57 58 59 59 59 58 56 55 53 52 51 50 50 49 45 40 34 30 28 30 34 37 38 40 43 46 50 55 58 62 66 64 59 62 67 63 57 57 60 66 70 68 61 62 68 71 71 74 76 78 81 81 81 82
96 95 92 90 90 88 81 73 67 62 61 65 68 66 63 63 66 66 62 55 52 53 57 60 59 56 54 54 54 56 58 58 58 58 59 59 59 58 57 55 54 52 50 49 49 49 48 43 34 26 24 28 33 34 32 30 31 35 39 44 50 53 58 63 62 58 62 65 58 51 50 52 58 66 68 66 68 71 72 74 76 78 80 81 81 82 84
95 95 93 93 93 85 70 58 56 56 56 59 63 64 64 62 61 60 59 55 50 47 50 55 58 56 55 55 56 56 57 57 57 58 58 58 57 56 56 55 52 48 48 48 48 45 42 38 31 27 31 37 36 30 22 17 22 29 33 39 46 50 54 59 60 59 62 61 55 51 51 51 54 61 66 68 71 72 72 74 77 78 81 82 82 84 85
92 94 93 90 88 81 68 56 52 53 56 59 60 58 54 52 51 51 52 54 51 46 43 46 51 55 56 56 55 54 55 56 57 57 58 57 55 55 54 51 46 44 45 46 45 40 36 34 34 34 35 35 32 26 19 13 17 28 33 35 40 46 49 53 56 59 63 63 59 57 59 58 58 62 65 66 68 71 72 74 76 78 80 82 83 84 84
84 86 86 82 77 74 69 59 51 51 56 60 60 56 51 49 49 49 49 53 54 48 41 40 46 52 55 55 53 53 53 55 56 57 57 56 54 54 52 47 43 43 45 44 41 36 33 32 32 31 31 30 28 27 26 20 15 22 30 34 38 42 46 50 54 58 63 64 63 63 64 64 63 62 63 65 67 70 72 74 76 79 81 83 84 84 84
72 74 74 69 64 64 63 56 50 50 53 57 61 60 56 52 51 50 50 52 52 47 41 38 42 49 53 53 52 52 53 53 53 54 55 55 54 54 51 46 44 46 46 41 35 32 31 30 29 29 29 30 30 30 28 24 17 18 28 35 40 43 46 50 54 59 65 67 66 65 64 65 66 66 67 70 72 74 75 77 78 80 82 83 83 82 82
60 61 58 55 53 56 55 51 47 48 51 54 58 58 55 53 53 52 50 50 48 44 41 39 41 46 51 53 52 52 52 52 52 52 53 54 55 55 51 47 48 51 50 43 35 32 33 37 38 37 33 32 32 32 34 34 27 17 19 27 34 41 48 53 56 60 65 69 70 69 67 67 69 72 73 75 75 75 77 78 80 81 82 82 82 82 81
52 51 48 47 50 53 53 51 49 51 52 52 51 51 52 55 55 53 52 51 48 43 41 41 41 44 48 51 52 52 51 50 50 51 51 54 56 55 52 50 53 57 58 54 47 44 45 47 50 48 45 42 41 38 37 38 35 25 23 29 33 36 44 53 57 60 64 67 69 71 71 70 72 74 75 77 78 79 81 83 83 84 83 82 81 80 79
48 47 48 50 52 54 54 53 52 52 51 49 49 50 54 57 57 54 52 51 48 43 41 41 42 43 46 49 50 51 50 49 49 50 51 54 56 55 51 52 57 61 62 61 59 57 57 57 56 54 52 50 52 49 43 41 41 35 32 35 36 35 40 48 54 59 65 68 70 72 72 73 75 77 79 80 82 83 83 84 83 82 80 78 77 76 76
51 52 53 53 51 50 51 52 51 49 48 50 53 55 57 57 56 54 52 50 47 44 41 41 42 43 45 47 48 48 48 48 48 49 52 54 56 55 51 53 59 63 64 64 63 62 63 62 62 60 57 54 54 54 51 50 51 45 35 31 35 38 41 45 49 52 57 61 66 70 73 75 78 81 81 81 81 80 79 78 78 76 75 74 75 76 76
55 54 52 49 48 49 51 52 52 52 52 53 55 58 60 58 55 53 52 50 46 43 41 41 42 43 44 46 46 46 46 47 48 50 52 54 57 56 53 53 59 63 65 66 66 65 65 65 64 64 63 60 58 58 55 54 57 56 49 43 42 42 42 45 49 50 49 46 46 49 55 61 66 69 72 74 74 74 74 74 73 72 72 73 74 75 75
51 50 49 49 51 53 55 55 56 57 57 55 55 58 60 58 55 54 53 48 44 41 41 41 41 41 41 42 42 42 44 45 47 50 52 53 56 57 55 54 58 63 66 66 66 66 67 67 67 66 65 63 63 64 62 59 59 60 60 58 56 52 50 51 53 53 52 50 47 47 50 52 53 55 60 63 65 66 68 69 70 71 72 73 74 74 75
48 49 51 54 57 58 58 58 59 59 56 52 51 53 56 56 55 54 51 46 42 40 40 39 39 39 39 39 39 40 41 43 45 48 50 52 54 56 55 54 57 63 67 69 69 68 68 68 68 68 67 63 60 59 60 60 60 60 61 62 63 62 60 59 57 56 55 56 58 61 62 60 59 59 61 63 65 66 69 71 72 73 74 74 75 75 76
52 53 54 57 59 61 61 61 60 57 53 48 47 49 53 56 54 52 49 46 43 42 40 40 40 40 39 40 41 41 41 42 43 45 47 49 52 54 54 53 55 59 65 68 70 70 70 71 70 70 70 69 65 61 58 57 58 60 61 63 64 65 65 64 64 63 59 57 58 61 64 65 65 67 68 69 71 73 74 75 75 75 75 76 76 76 77
56 57 58 58 59 59 61 62 62 59 53 48 46 48 52 54 53 49 47 45 45 44 44 43 43 43 42 43 43 42 42 42 44 45 46 48 50 51 52 53 54 56 61 66 68 70 71 72 73 72 72 73 73 72 70 68 67 66 66 67 68 69 69 69 70 70 68 64 62 62 63 65 66 68 70 72 74 75 76 76 76 76 76 77 78 78 78
56 57 59 60 59 57 56 58 60 58 52 48 47 49 51 52 49 46 45 44 44 44 44 44 44 44 44 43 43 42 42 43 44 46 46 47 49 50 52 53 54 55 58 62 66 68 70 71 73 73 72 72 73 74 75 77 77 77 75 74 74 75 76 76 75 75 76 75 74 72 72 72 72 73 73 73 74 74 75 76 76 77 78 79 80 80 78
54 54 55 56 56 54 53 53 54 52 49 46 47 48 49 48 47 46 45 44 43 42 42 43 43 43 43 43 43 42 42 42 44 46 47 47 49 50 51 52 54 56 58 60 63 65 68 70 72 73 72 72 71 71 71 74 77 79 79 79 78 79 80 80 80 79 79 80 80 79 78 77 75 75 74 74 74 75 76 76 77 78 78 77 76 76 75
50 51 51 52 53 53 53 52 50 49 49 48 48 49 48 48 48 48 47 46 45 43 43 44 45 45 45 45 45 44 44 43 44 45 46 48 50 51 51 52 53 55 58 60 62 65 66 69 71 72 73 73 73 72 71 70 72 74 76 78 79 79 80 81 82 82 82 82 83 83 82 81 80 80 80 81 80 80 79 79 78 76 74 73 73 73 74
47 48 49 51 52 52 52 51 51 51 51 51 51 51 52 52 52 52 51 50 49 47 47 48 48 47 47 47 47 47 46 46 45 45 46 48 51 54 56 56 56 56 57 59 61 64 66 68 70 71 73 74 74 75 75 74 73 73 74 75 76 77 77 79 82 85 87 88 88 88 88 87 86 84 83 82 81 80 79 77 74 72 72 73 74 74 76
49 50 51 53 53 52 51 51 52 53 53 53 54 55 57 57 58 58 57 56 54 53 52 52 52 51 51 51 50 50 49 49 49 49 50 50 52 55 59 61 61 59 58 58 59 61 64 67 69 71 72 72 73 73 74 75 75 75 75 75 75 75 75 75 77 80 83 85 86 87 86 85 84 82 80 78 77 78 78 77 75 74 74 75 75 77 79
54 55 55 56 55 54 53 53 53 53 54 55 57 59 61 62 63 64 63 62 60 59 57 57 56 55 55 55 54 54 53 53 53 54 54 54 55 57 60 62 64 63 62 61 61 61 63 65 67 70 72 73 74 74 73 73 73 73 73 74 74 74 73 73 73 74 76 79 81 82 82 82 82 81 79 78 77 77 77 77 77 76 75 76 78 81 83
56 56 56 56 56 55 55 54 54 54 55 57 59 61 62 64 64 64 64 64 63 62 61 60 59 59 59 58 58 58 58 57 57 57 57 57 57 58 60 63 65 66 66 66 66 65 65 65 66 68 69 71 72 74 74 74 74 74 74 75 75 75 75 76 76 76 77 78 79 80 81 82 82 81 80 80 79 78 78 78 79 79 79 80 82 84 86
57 57 57 57 56 56 55 55 55 55 56 57 60 62 63 64 63 63 62 62 63 63 63 62 62 62 62 61 61 61 61 61 61 61 61 60 60 61 62 63 65 67 69 70 71 71 71 70 70 69 70 70 71 71 73 74 75 75 76 77 78 79 79 80 80 80 80 80 80 81 81 82 82 82 82 82 81 81 81 81 82 83 84 85 87 88 89
57 57 57 57 57 57 57 57 57 57 58 59 61 63 64 65 64 63 63 63 63 63 63 63 63 63 62 62 62 63 63 63 63 64 66 66 66 66 66 66 67 68 70 72 73 75 76 76 75 74 73 73 73 73 74 74 75 76 77 78 79 80 81 82 82 82 82 82 81 81 82 82 83 84 85 85 85 85 85 85 86 87 88 89 90 91 92
58 57 57 57 58 58 59 60 60 60 60 60 61 63 64 65 64 64 64 65 65 65 65 65 65 65 64 64 64 65 66 66 67 68 69 69 69 69 70 70 70 70 70 72 74 75 77 79 79 79 78 78 78 78 78 78 78 79 80 80 81 81 82 83 83 83 83 84 84 84 84 85 87 88 89 89 89 90 90 91 91 92 93 94 95 96 97
59 60 60 60 60 60 61 62 63 64 64 63 63 63 63 64 64 64 64 65 66 66 67 67 67 68 68 68 69 69 70 70 71 71 72 72 71 71 71 71 70 70 71 72 73 75 76 79 81 82 83 82 82 82 82 82 83 83 83 84 84 84 84 85 85 86 86 87 87 87 87 88 89 91 92 93 93 94 95 95 96 97 97 98 99 100 101
60 61 62 63 63 64 64 64 65 67 67 67 67 66 66 66 65 65 65 65 66 68 69 70 70 71 71 71 71 72 73 74 74 75 75 75 74 74 73 72 72 71 71 72 73 74 75 77 79 82 85 86 87 86 86 86 87 87 88 88 89 89 90 91 92 92 93 93 93 93 93 93 94 94 95 95 95 96 96 97 97 98 99 101 102 103 104
Wind_Direction
259 259 259 259 260 261 261 261 261 262 263 266 270 273 271 265 259 256 254 250 248 248 248 250 252 250 246 241 237 235 236 238 239 238 237 235 234 234 235 237 238 237 239 242 244 244 242 241 240 240 241 242 244 247 249 251 254 257 259 261 263 265 267 269 271 272 274 277 278 280 283 285 287 289 293 296 298 300 302 303 303 304 307 308 309 309 309
259 259 259 260 260 261 261 261 261 261 261 262 264 266 268 268 264 260 257 254 250 248 247 247 248 250 251 249 245 240 236 237 238 239 239 238 236 234 234 236 238 239 239 241 243 245 245 244 244 243 243 243 245 247 248 250 252 255 258 260 263 265 267 268 271 273 275 276 278 280 282 284 286 289 292 295 297 299 300 301 302 302 304 305 306 306 306
258 258 259 259 260 261 262 262 261 261 261 260 260 261 265 269 268 265 260 254 249 248 247 245 246 248 250 252 252 248 242 239 238 238 238 239 239 237 235 235 237 239 241 242 243 244 244 244 245 245 245 246 247 249 250 251 252 253 256 259 262 264 266 268 270 273 275 276 278 280 282 284 286 289 291 294 296 297 298 299 299 299 300 301 302 303 303
257 257 257 257 258 259 260 261 262 264 263 261 259 260 262 263 264 264 261 253 248 249 247 245 245 248 250 250 251 251 248 244 242 239 237 238 240 240 239 237 237 238 240 241 242 243 243 244 244 245 246 247 248 249 250 251 252 254 255 257 260 263 265 267 269 272 274 277 278 280 282 284 286 288 290 292 293 294 295 295 296 296 297 298 299 300 301
256 255 255 255 254 253 256 262 265 265 264 262 259 256 256 257 258 261 262 257 252 251 250 250 249 249 250 250 251 252 250 247 246 244 241 238 239 240 240 240 240 240 240 240 241 242 242 243 244 246 246 247 248 249 250 251 253 255 256 257 259 261 264 266 269 271 273 276 277 279 281 282 285 287 289 290 290 291 292 292 293 293 295 296 297 298 298
255 253 252 252 251 252 259 265 265 264 264 264 260 254 252 253 253 256 259 259 258 256 255 253 252 251 250 251 253 253 252 249 247 246 245 242 240 240 241 241 241 241 241 241 241 242 243 243 244 246 247 248 248 249 250 252 254 255 256 257 259 261 264 266 268 270 272 274 276 277 279 282 284 285 286 286 287 288 289 290 291 292 293 294 295 296 297
254 252 250 250 251 255 259 259 259 262 264 263 260 256 252 251 251 253 258 261 261 261 260 257 255 253 252 254 256 256 254 252 250 247 246 244 243 242 242 242 241 242 242 243 243 243 243 244 245 246 247 248 249 250 250 251 253 254 255 257 259 261 263 266 268 270 271 273 274 276 278 280 281 282 282 283 285 287 288 289 290 291 292 293 294 295 297
254 252 251 250 252 254 254 252 253 258 260 260 260 259 257 255 254 254 257 261 262 261 261 261 258 256 255 255 258 260 259 257 253 250 246 243 242 243 243 243 242 242 242 243 244 244 245 246 246 247 247 248 249 250 250 250 251 253 254 256 258 260 262 265 267 268 270 272 274 275 275 276 277 279 281 282 284 286 287 288 289 290 291 292 293 294 296
253 252 252 252 251 250 249 248 249 252 255 257 260 260 260 259 256 254 256 261 263 262 261 259 258 258 259 259 259 261 263 262 258 254 249 245 243 242 242 241 242 242 242 241 241 242 244 245 245 246 246 247 248 248 249 250 250 250 252 254 256 258 260 263 264 266 268 270 272 272 272 273 276 278 280 282 284 286 286 287 288 289 290 292 293 294 296
253 252 252 252 252 250 248 247 246 247 250 252 255 257 259 258 256 255 258 261 262 262 260 258 257 257 260 261 261 260 261 263 263 260 256 252 247 245 244 242 241 241 242 242 241 239 240 242 243 244 245 245 246 247 247 247 248 249 250 252 254 257 258 260 262 265 266 268 269 270 272 275 277 279 281 283 285 286 287 287 288 289 291 292 293 294 296
253 253 252 252 252 251 249 247 245 245 246 248 251 253 256 258 258 257 259 261 262 261 259 258 257 257 258 260 261 260 259 261 264 265 265 261 255 252 250 249 246 244 244 244 244 242 240 240 242 244 244 245 245 246 246 246 247 248 249 252 254 255 256 257 260 263 265 266 268 271 274 276 277 279 282 285 287 287 287 288 289 291 292 293 293 294 294
251 252 252 252 251 251 250 249 247 246 246 248 250 252 255 258 259 259 259 260 260 259 258 258 257 258 259 259 260 261 262 262 263 265 268 268 263 258 254 252 250 248 246 245 246 245 244 243 243 244 245 245 245 246 246 246 245 245 247 251 253 254 255 256 259 261 264 266 268 272 274 275 277 280 284 287 289 289 289 291 292 293 294 294 293 293 292
250 250 251 251 251 251 251 251 249 248 248 249 251 253 256 258 259 258 258 257 257 259 259 259 258 258 259 259 260 261 263 265 265 265 266 267 267 263 259 255 251 249 247 246 245 245 245 244 245 245 246 246 247 247 247 247 245 245 247 250 251 252 254 256 258 260 262 265 267 270 272 275 278 281 285 288 289 291 293 295 296 297 297 296 294 294 293
248 249 249 249 249 250 251 251 251 250 250 250 251 252 254 255 256 256 256 256 256 257 258 258 258 258 258 259 260 262 264 265 266 266 266 265 264 263 261 259 256 252 250 248 246 245 245 244 245 245 246 246 247 248 249 249 247 247 249 250 251 252 254 256 258 260 262 264 267 269 272 275 278 281 285 289 292 295 299 301 301 300 299 298 297 297 295
245 246 247 248 248 248 249 251 252 252 250 249 249 250 251 252 253 253 254 254 254 254 255 256 257 258 258 257 259 261 264 265 265 267 267 265 263 260 258 259 259 258 255 253 250 248 247 246 245 245 245 245 245 246 248 248 248 248 249 249 250 252 253 256 258 260 262 264 266 269 271 274 278 281 285 290 295 300 303 304 304 302 299 299 299 296 293
242 243 245 247 247 247 246 247 249 251 251 249 248 248 248 249 250 250 251 251 252 251 252 253 255 256 256 256 256 259 261 263 266 268 268 266 264 261 258 256 257 258 258 257 255 253 251 249 247 247 246 246 246 245 245 246 248 248 248 249 250 251 252 254 256 258 260 263 265 268 271 273 275 278 283 290 296 300 302 303 301 294 290 289 287 286 291
240 241 241 243 245 246 245 245 246 247 248 249 248 248 247 245 245 246 246 248 250 250 250 251 253 254 254 253 254 256 259 262 267 270 268 265 263 262 260 258 257 257 258 258 258 257 255 253 252 250 248 247 247 247 246 245 246 248 249 251 252 252 252 252 253 255 257 260 263 266 269 271 274 278 284 290 293 295 300 300 290 280 278 275 273 280 293
237 238 239 238 239 241 241 242 243 242 242 244 245 245 243 242 242 243 244 245 247 248 248 249 251 253 253 253 254 257 260 263 265 266 265 261 260 260 261 260 259 258 258 258 258 257 257 255 254 253 252 250 249 248 248 247 248 251 254 256 256 255 254 253 253 254 256 259 263 267 270 272 275 279 283 286 287 289 292 285 269 269 275 269 267 280 295
231 232 234 233 231 232 233 232 234 234 235 237 240 239 238 238 239 241 242 243 245 246 248 249 252 253 254 255 256 258 261 262 260 260 262 262 259 258 258 258 259 258 258 257 257 257 257 256 254 253 253 253 251 249 247 246 245 245 247 250 252 252 251 252 253 254 256 259 262 265 269 272 275 278 280 282 281 279 275 265 257 261 265 259 265 283 296
227 225 226 226 224 224 226 227 229 230 230 231 233 234 234 235 236 238 240 242 243 245 248 251 253 255 255 256 257 257 258 259 258 259 262 262 259 257 256 255 255 256 257 257 258 258 258 257 255 253 252 252 251 249 247 244 240 236 236 241 245 247 248 249 250 252 255 257 260 263 267 270 273 275 276 277 274 267 262 259 255 249 244 248 265 286 297
226 222 220 222 223 221 221 224 228 229 227 227 229 231 233 235 237 238 240 242 244 246 248 251 253 255 256 256 256 256 257 257 258 258 259 259 256 254 253 252 252 254 256 257 258 259 259 259 258 256 254 253 251 249 246 244 241 237 237 240 245 247 248 249 250 252 254 256 258 261 264 266 270 273 271 269 266 261 259 259 253 245 241 247 262 283 293
223 222 220 223 227 226 223 224 228 229 227 227 230 232 234 236 238 239 241 244 246 247 249 250 251 253 254 254 254 254 255 255 256 255 255 255 254 251 250 250 251 253 255 257 259 260 260 260 260 259 257 256 253 249 246 244 241 239 239 241 245 247 248 248 249 251 258 264 266 263 262 266 272 273 268 264 261 256 256 258 255 249 246 248 259 275 285
218 221 222 226 230 231 227 226 227 229 229 228 229 232 234 235 236 239 242 244 246 246 246 247 248 249 249 249 250 250 251 252 253 251 251 252 252 249 249 250 251 252 254 256 258 259 260 261 261 260 259 256 253 249 246 243 241 240 240 241 244 246 246 245 243 243 252 267 271 270 269 271 271 266 261 259 256 252 253 257 257 252 250 250 257 269 279
213 217 220 223 228 232 232 229 228 228 228 227 228 229 231 230 231 233 237 240 241 242 242 242 244 245 245 245 245 246 247 248 248 246 246 248 249 249 249 250 251 251 252 254 256 257 259 260 260 260 258 255 253 251 248 245 242 241 240 241 243 244 243 242 239 232 231 240 246 253 259 262 258 252 249 250 250 250 252 254 253 251 252 253 257 265 273
211 213 215 218 223 228 230 231 230 227 225 224 224 223 223 224 224 226 231 236 238 239 241 242 244 243 242 241 241 242 243 243 242 241 242 244 246 248 249 249 250 250 250 251 252 255 257 258 258 257 255 255 257 257 253 249 246 243 242 243 243 241 241 241 239 235 232 231 234 243 252 254 250 246 243 244 247 250 250 251 251 251 252 255 260 266 273
211 211 212 214 218 222 226 229 231 228 224 221 220 217 216 219 221 222 226 232 236 239 241 243 243 241 238 238 238 238 238 238 238 239 240 241 242 245 246 246 247 248 248 248 249 252 254 254 250 245 246 256 267 266 257 250 245 242 240 240 240 238 237 238 238 235 233 232 236 244 250 248 244 240 239 241 246 248 248 250 252 253 254 257 262 269 274
209 210 211 212 215 218 221 223 223 220 217 216 213 211 212 217 222 224 226 230 236 239 241 240 239 238 236 236 235 234 234 235 236 237 239 239 240 242 242 242 244 246 247 247 248 248 249 245 238 238 255 270 274 269 261 254 249 245 242 241 240 237 234 234 235 234 231 234 240 244 242 240 238 237 237 239 242 244 246 249 252 254 256 259 264 269 274
207 209 211 213 216 217 216 214 211 208 205 204 204 206 210 215 219 222 225 229 234 240 240 237 235 234 233 231 231 232 233 234 235 236 236 237 239 240 240 240 242 244 244 244 242 241 242 240 235 244 264 270 266 260 258 264 268 263 255 248 243 240 235 233 233 230 230 236 243 243 238 238 238 237 239 241 242 244 247 250 251 254 257 261 265 270 274
207 209 212 215 218 218 216 213 210 204 197 195 198 201 205 210 215 220 226 230 233 237 240 237 233 230 228 227 228 230 232 233 235 235 235 237 239 239 238 238 238 238 237 236 233 232 236 237 233 236 244 247 243 235 226 234 266 272 268 260 252 245 240 238 235 230 231 238 244 243 240 240 239 239 241 244 246 248 250 252 254 257 260 264 268 272 276
206 209 212 215 217 216 214 213 210 204 200 199 200 203 206 213 219 225 230 233 233 234 238 239 235 231 228 227 228 230 231 232 235 236 236 238 239 238 236 234 231 229 229 228 226 224 224 222 223 228 231 228 227 226 217 210 234 267 276 274 266 254 246 242 237 232 231 237 242 241 241 241 241 242 245 247 250 253 255 256 258 261 264 267 271 274 278
206 208 211 213 212 212 212 210 206 204 205 205 206 209 213 218 222 225 228 231 232 232 236 239 236 232 230 229 229 230 230 232 235 237 237 238 238 237 234 230 225 222 221 221 222 222 220 219 226 233 235 234 236 239 232 220 225 265 281 281 275 265 254 247 242 236 233 236 240 241 242 243 244 246 249 251 254 257 258 259 260 262 265 269 272 275 278
204 206 207 206 205 206 206 203 200 201 202 203 204 208 212 215 218 222 225 226 228 230 234 235 234 232 231 230 230 230 231 233 235 236 236 236 235 236 233 228 222 218 214 211 213 215 218 225 229 226 220 220 225 229 228 221 218 237 267 268 265 261 254 248 244 241 238 239 242 245 246 247 247 249 251 253 255 257 258 260 262 264 268 271 274 276 278
201 201 198 196 195 195 196 197 199 200 198 197 202 209 214 215 217 221 224 224 225 229 232 233 232 230 229 229 230 230 232 234 235 236 235 234 233 234 234 228 222 217 213 211 212 213 214 220 224 221 215 213 212 213 215 215 212 220 240 241 239 245 248 245 242 242 241 241 243 245 246 247 249 250 252 253 256 258 260 262 265 268 270 273 275 276 278
191 188 184 183 184 185 188 192 196 198 199 203 209 214 217 217 218 221 224 225 227 230 233 232 230 229 228 228 230 231 233 235 236 235 234 233 232 234 234 228 221 217 216 216 218 220 221 224 227 227 223 219 217 216 216 215 213 219 235 239 235 239 248 248 244 242 242 243 243 245 247 249 250 252 253 255 258 260 262 264 267 269 270 272 274 276 279
174 172 172 174 178 182 187 192 195 199 205 212 215 216 216 217 217 219 222 224 225 228 229 229 229 230 230 230 231 232 233 234 235 235 234 233 233 234 235 229 221 219 220 221 222 224 225 227 230 231 229 227 225 224 223 222 221 222 226 232 230 231 241 248 247 244 243 245 246 248 250 252 253 254 255 257 258 260 263 265 266 268 270 272 275 277 279
164 165 169 173 178 183 188 193 197 201 205 209 212 215 215 214 214 216 218 220 223 226 228 228 229 230 230 229 229 231 232 234 236 236 235 234 234 235 235 230 223 220 223 226 226 227 227 227 229 230 231 231 232 230 228 228 227 225 224 227 228 227 232 241 244 242 240 238 237 239 244 247 250 253 255 256 259 261 263 265 267 270 272 275 276 278 278
163 167 173 179 183 187 191 196 200 204 206 209 212 214 214 212 212 213 215 218 224 227 227 227 226 225 225 226 228 230 233 235 237 238 237 235 235 236 236 233 226 223 224 227 229 229 229 229 228 229 230 232 233 234 233 233 232 231 231 233 235 234 233 235 238 240 239 235 230 231 236 241 246 252 255 258 260 263 265 268 270 272 274 275 276 276 276
172 175 181 186 190 193 196 199 202 205 208 211 214 214 213 211 211 212 215 221 226 226 223 222 221 221 223 227 230 233 236 238 240 241 239 236 236 237 237 235 231 227 226 228 230 231 231 231 230 230 231 232 234 234 234 234 234 235 236 237 237 236 235 235 237 241 244 245 245 246 246 247 249 254 257 259 261 265 268 270 273 274 275 276 277 277 278
180 183 187 191 195 200 204 206 206 208 211 213 214 214 213 212 212 215 219 223 225 225 225 227 227 227 229 232 235 236 238 240 241 242 240 237 235 236 236 235 234 231 229 230 232 233 232 232 232 232 232 233 234 235 236 236 235 235 237 238 238 238 239 242 244 247 250 250 250 250 250 249 251 254 257 259 262 266 268 271 273 275 277 277 278 278 279
185 188 191 193 197 202 208 211 211 211 212 213 213 213 213 213 214 218 223 225 227 230 232 233 232 233 234 235 235 236 239 241 241 241 239 236 235 236 235 235 235 235 233 232 234 235 235 235 235 236 237 237 238 239 240 241 242 242 242 242 242 243 245 249 252 255 256 255 252 251 251 252 254 256 259 262 265 267 269 272 274 275 276 277 278 279 280
191 194 196 198 200 203 208 211 212 212 212 214 215 215 214 214 215 220 225 227 227 229 230 231 232 233 233 233 233 236 240 243 242 241 239 237 236 236 237 237 237 237 237 236 236 237 238 237 237 238 240 241 242 244 244 244 245 246 248 249 248 248 249 252 254 256 258 258 258 258 258 259 261 263 265 266 268 269 271 273 274 275 276 278 279 280 280
196 199 202 205 207 210 211 212 211 211 213 216 218 217 217 217 220 222 224 225 224 226 228 230 230 230 231 232 235 238 241 242 242 240 239 238 236 236 237 240 241 241 241 241 240 239 239 239 240 240 241 242 244 245 247 248 248 248 249 251 252 253 253 254 255 257 258 259 260 261 263 264 265 267 268 269 270 271 273 274 275 276 277 278 278 279 280
199 203 206 209 213 215 215 214 213 213 215 217 219 220 221 222 223 222 221 222 224 228 230 230 230 231 232 235 238 240 241 242 241 240 239 239 238 237 239 243 245 245 245 244 243 242 242 241 241 241 242 244 245 246 247 249 251 251 252 253 254 255 256 257 257 257 258 259 260 261 263 264 266 267 268 269 270 271 272 273 273 274 275 276 277 278 279
203 206 209 213 216 218 218 217 216 217 219 219 220 221 222 223 222 222 221 223 228 231 233 232 233 234 236 238 240 242 244 244 243 242 240 241 241 242 242 244 246 247 248 247 245 245 244 244 243 243 244 245 246 247 248 250 251 253 254 254 255 256 257 258 258 259 259 260 260 261 262 263 264 266 267 268 269 269 270 271 272 273 274 275 276 277 277
206 209 212 215 218 220 220 220 219 219 220 221 221 223 224 224 225 226 227 230 234 237 237 236 236 238 240 241 243 244 246 247 247 245 243 243 244 244 244 244 244 246 247 248 248 247 246 246 246 246 246 246 247 248 249 250 252 253 254 255 256 256 257 259 259 260 260 261 262 262 263 263 264 264 265 266 267 269 270 270 271 271 272 273 274 275 276
207 209 212 215 217 220 222 223 223 223 222 222 222 223 225 226 228 230 232 234 236 238 238 238 240 242 243 244 245 247 249 250 250 248 245 244 245 245 244 243 243 244 245 246 248 249 249 248 247 247 247 248 249 250 250 251 252 253 254 255 255 256 257 258 258 259 260 261 262 262 263 264 264 264 265 266 267 268 269 270 270 270 270 271 272 272 273
208 211 213 215 218 220 222 224 225 225 226 226 226 226 227 228 229 231 233 235 236 237 238 239 241 243 244 246 247 248 249 250 251 249 247 245 245 246 245 245 244 244 245 245 246 248 249 250 250 249 248 248 249 250 251 251 252 252 253 254 255 256 257 257 258 259 259 260 262 263 263 264 265 265 266 266 266 267 268 269 269 269 269 269 270 270 271
212 214 216 217 219 220 222 224 226 226 227 228 228 229 230 231 232 233 234 235 237 238 239 240 242 244 246 248 249 249 249 249 250 250 249 248 247 247 247 246 246 247 247 248 248 249 250 251 251 251 250 249 249 250 251 251 252 252 253 254 255 256 256 257 258 259 260 261 262 263 264 265 265 266 266 266 266 267 267 268 268 269 269 270 270 271 272
217 218 220 221 223 224 225 226 227 227 228 230 231 232 233 234 235 236 237 238 239 240 241 243 244 246 247 248 249 250 251 251 251 252 253 253 252 251 250 249 248 248 249 250 250 251 251 251 251 251 250 250 250 250 251 252 253 253 254 254 255 256 257 257 258 259 260 261 261 262 263 264 265 266 266 267 267 268 268 268 269 269 270 270 271 271 272
222 223 225 226 228 229 230 230 230 230 230 232 233 234 236 237 239 240 241 242 243 244 245 245 246 247 248 249 249 251 252 254 255 256 257 258 258 257 255 253 252 251 251 251 251 251 251 250 250 250 250 250 250 251 251 252 253 254 255 256 256 257 258 259 259 260 261 262 263 264 264 265 266 266 267 267 268 268 268 268 269 269 270 270 271 272 273
229 229 230 231 233 234 235 235 235 234 234 234 235 236 238 239 240 242 244 245 246 247 248 249 249 250 250 251 252 253 254 256 257 258 260 261 261 261 260 258 257 256 255 254 253 252 251 251 250 250 250 250 250 250 251 252 253 254 255 256 256 257 258 259 260 261 262 263 264 264 265 266 266 267 267 268 268 269 269 269 269 270 270 271 272 272 273
235 235 235 236 236 237 238 238 238 238 237 237 238 238 239 240 241 242 244 246 247 248 249 250 251 252 252 252 253 253 254 255 257 258 259 261 262 263 262 261 261 260 259 258 256 255 254 253 252 251 250 250 250 250 251 251 252 253 254 255 256 257 257 258 259 260 261 262 262 263 264 264 265 265 266 266 266 267 267 268 269 269 270 271 272 274 275
Height
10789 10793 10793 10793 10796 10803 10808 10811 10815 10819 10820 10820 10824 10832 10838 10839 10844 10851 10849 10846 10851 10852 10851 10852 10850 10850 10854 10857 10861 10868 10872 10876 10881 10885 10889 10894 10897 10901 10903 10903 10903 10905 10906 10905 10907 10913 10918 10921 10923 10926 10928 10930 10930 10931 10932 10934 10935 10936 10937 10937 10936 10936 10937 10936 10934 10936 10939 10940 10940 10940 10942 10942 10941 10941 10941 10940 10939 10937 10935 10932 10929 10927 10925 10923 10921 10919 10916
10779 10783 10785 10785 10785 10791 10797 10800 10806 10811 10814 10817 10820 10822 10825 10830 10839 10846 10842 10841 10846 10846 10844 10845 10845 10845 10849 10850 10853 10861 10867 10870 10873 10877 10881 10885 10889 10894 10897 10898 10898 10899 10901 10901 10902 10907 10911 10914 10916 10919 10922 10924 10924 10926 10928 10929 10930 10931 10932 10932 10931 10931 10933 10931 10930 10932 10934 10935 10935 10936 10937 10937 10936 10936 10935 10934 10933 10931 10929 10926 10923 10921 10919 10917 10915 10912 10910
10768 10773 10778 10777 10775 10780 10784 10787 10795 10803 10807 10810 10814 10816 10817 10821 10830 10835 10834 10836 10842 10840 10836 10838 10840 10842 10847 10848 10848 10852 10858 10862 10864 10866 10871 10875 10880 10885 10889 10891 10892 10892 10894 10896 10898 10901 10904 10907 10909 10911 10914 10917 10918 10920 10922 10924 10925 10925 10926 10928 10928 10927 10927 10927 10927 10927 10928 10929 10929 10930 10930 10931 10931 10930 10929 10928 10926 10924 10922 10920 10917 10914 10912 10910 10908 10906 10903
10757 10765 10767 10767 10770 10769 10766 10773 10786 10795 10799 10803 10807 10811 10811 10813 10819 10822 10824 10832 10837 10832 10828 10833 10837 10839 10842 10844 10843 10844 10848 10852 10853 10856 10862 10867 10871 10875 10879 10882 10883 10885 10887 10889 10893 10895 10897 10899 10902 10904 10907 10910 10912 10914 10916 10917 10918 10920 10922 10923 10924 10922 10921 10922 10922 10921 10921 10922 10923 10923 10924 10924 10923 10923 10922 10920 10918 10916 10914 10913 10910 10907 10904 10902 10901 10899 10896
10746 10754 10755 10759 10758 10749 10752 10771 10783 10785 10789 10795 10801 10803 10803 10805 10808 10811 10817 10825 10827 10824 10826 10832 10835 10835 10836 10837 10836 10837 10840 10844 10846 10848 10853 10860 10863 10865 10868 10871 10874 10877 10879 10882 10886 10888 10890 10894 10896 10898 10900 10903 10905 10907 10909 10910 10913 10915 10916 10917 10918 10917 10916 10916 10916 10915 10915 10915 10916 10916 10916 10916 10916 10915 10914 10912 10910 10908 10906 10904 10902 10900 10898 10896 10894 10891 10889
10733 10741 10744 10745 10735 10734 10758 10777 10773 10770 10779 10786 10789 10791 10793 10796 10799 10804 10811 10816 10817 10820 10826 10831 10830 10829 10829 10828 10827 10828 10831 10835 10840 10842 10846 10851 10855 10856 10859 10862 10865 10868 10870 10874 10878 10881 10885 10889 10891 10892 10894 10897 10899 10900 10903 10905 10907 10909 10910 10911 10912 10912 10911 10910 10909 10908 10908 10908 10908 10908 10908 10908 10908 10907 10905 10903 10902 10900 10898 10896 10894 10893 10891 10889 10887 10884 10882
10715 10724 10728 10725 10720 10739 10768 10771 10759 10762 10770 10770 10770 10775 10780 10786 10792 10799 10805 10809 10813 10818 10821 10824 10824 10822 10821 10820 10818 10819 10822 10827 10832 10836 10840 10844 10846 10848 10850 10853 10856 10859 10862 10866 10870 10874 10879 10883 10885 10886 10889 10891 10893 10895 10897 10899 10901 10903 10903 10904 10906 10906 10905 10903 10902 10901 10901 10900 10900 10900 10900 10900 10899 10898 10896 10895 10894 10893 10892 10889 10887 10886 10885 10883 10880 10878 10876
10695 10705 10710 10712 10720 10744 10760 10756 10753 10757 10754 10751 10755 10759 10766 10778 10788 10795 10799 10802 10808 10813 10814 10815 10815 10813 10813 10813 10812 10812 10815 10819 10823 10827 10831 10835 10837 10839 10840 10842 10846 10850 10854 10858 10863 10868 10873 10875 10878 10880 10882 10885 10887 10889 10891 10894 10896 10896 10897 10898 10899 10898 10898 10896 10894 10893 10893 10892 10891 10891 10891 10891 10890 10889 10888 10886 10887 10888 10886 10883 10880 10879 10878 10876 10873 10871 10869
10676 10689 10695 10699 10715 10734 10741 10744 10749 10747 10739 10742 10746 10746 10754 10771 10781 10786 10791 10796 10801 10805 10807 10807 10807 10805 10804 10804 10806 10808 10808 10809 10812 10815 10819 10824 10828 10830 10830 10832 10835 10838 10841 10847 10853 10859 10862 10864 10868 10871 10873 10876 10879 10881 10884 10887 10888 10889 10890 10891 10890 10890 10890 10889 10886 10884 10884 10883 10882 10880 10880 10882 10883 10882 10881 10880 10881 10882 10880 10876 10874 10872 10872 10870 10867 10864 10862
10660 10674 10682 10688 10701 10718 10726 10732 10738 10736 10732 10733 10735 10736 10745 10760 10772 10779 10784 10788 10793 10797 10798 10799 10800 10799 10796 10795 10799 10803 10803 10802 10803 10805 10808 10813 10819 10821 10822 10824 10827 10829 10831 10834 10840 10847 10849 10851 10855 10860 10862 10865 10869 10872 10875 10878 10880 10882 10883 10883 10882 10882 10882 10880 10877 10875 10875 10873 10871 10871 10873 10875 10876 10875 10875 10875 10876 10876 10873 10870 10868 10867 10866 10864 10861 10859 10856
10646 10657 10669 10679 10688 10699 10707 10714 10723 10727 10724 10722 10725 10729 10737 10751 10766 10773 10776 10780 10785 10789 10790 10791 10792 10791 10790 10790 10793 10795 10796 10797 10798 10798 10799 10803 10809 10813 10816 10818 10822 10825 10827 10827 10829 10835 10840 10843 10846 10848 10850 10854 10858 10861 10865 10868 10872 10875 10877 10876 10874 10873 10872 10870 10869 10868 10865 10864 10864 10865 10867 10868 10868 10868 10869 10870 10870 10869 10867 10865 10863 10862 10861 10858 10855 10853 10850
10633 10642 10654 10665 10674 10681 10688 10698 10711 10717 10715 10715 10720 10724 10733 10749 10761 10765 10768 10772 10775 10779 10782 10783 10784 10784 10783 10785 10786 10787 10789 10792 10794 10794 10793 10793 10796 10801 10806 10810 10814 10817 10819 10820 10821 10826 10831 10835 10836 10837 10839 10843 10847 10851 10855 10860 10866 10870 10870 10867 10864 10862 10862 10862 10863 10861 10858 10857 10859 10860 10860 10860 10860 10862 10864 10864 10863 10861 10859 10859 10858 10856 10854 10850 10847 10844 10841
10622 10631 10638 10648 10659 10667 10674 10684 10696 10704 10708 10713 10716 10720 10732 10747 10753 10754 10759 10763 10764 10769 10773 10774 10775 10776 10777 10778 10778 10779 10782 10785 10787 10789 10789 10788 10788 10789 10792 10798 10803 10806 10807 10810 10813 10815 10819 10824 10826 10828 10831 10835 10839 10843 10846 10853 10860 10862 10859 10856 10854 10854 10855 10855 10855 10854 10852 10853 10855 10854 10853 10853 10855 10857 10858 10857 10854 10853 10853 10853 10851 10848 10845 10841 10837 10835 10832
10610 10618 10624 10634 10647 10656 10661 10669 10680 10692 10703 10709 10710 10714 10728 10739 10743 10744 10749 10752 10755 10760 10762 10764 10766 10768 10770 10771 10770 10771 10775 10778 10780 10781 10782 10783 10783 10782 10782 10786 10790 10794 10797 10800 10804 10806 10809 10813 10816 10817 10821 10825 10829 10832 10837 10844 10850 10850 10848 10847 10847 10847 10847 10847 10847 10847 10847 10848 10849 10848 10847 10848 10850 10851 10851 10849 10847 10846 10846 10846 10843 10840 10835 10830 10828 10826 10825
10598 10605 10611 10620 10635 10646 10652 10658 10666 10678 10690 10696 10700 10708 10719 10727 10731 10735 10738 10741 10746 10750 10751 10753 10756 10758 10761 10764 10763 10764 10766 10768 10771 10773 10774 10775 10776 10777 10777 10778 10779 10784 10787 10791 10795 10798 10801 10804 10806 10806 10808 10812 10816 10821 10826 10831 10836 10837 10837 10837 10838 10839 10840 10840 10840 10840 10841 10843 10843 10842 10842 10843 10845 10845 10843 10842 10841 10841 10841 10840 10838 10833 10828 10825 10824 10822 10820
10583 10593 10602 10609 10620 10633 10644 10650 10655 10663 10673 10681 10690 10699 10707 10714 10720 10724 10728 10731 10735 10739 10741 10742 10745 10748 10751 10754 10756 10758 10759 10760 10763 10765 10766 10767 10767 10768 10770 10772 10772 10775 10777 10780 10784 10788 10791 10794 10796 10797 10799 10801 10805 10810 10816 10820 10821 10823 10825 10827 10828 10831 10833 10833 10832 10833 10834 10836 10836 10836 10836 10838 10839 10838 10836 10835 10836 10837 10837 10837 10835 10832 10830 10830 10828 10821 10814
10568 10580 10594 10603 10610 10620 10633 10642 10647 10654 10661 10670 10680 10689 10695 10702 10708 10712 10717 10720 10723 10727 10730 10731 10734 10738 10742 10746 10749 10751 10753 10755 10756 10757 10758 10760 10759 10759 10761 10763 10765 10767 10768 10770 10773 10777 10780 10784 10786 10788 10790 10793 10795 10800 10806 10809 10810 10812 10817 10820 10822 10824 10825 10824 10824 10825 10827 10828 10829 10829 10829 10830 10832 10831 10829 10829 10830 10831 10833 10834 10833 10830 10829 10830 10827 10816 10807
10558 10568 10582 10596 10605 10613 10624 10633 10640 10647 10653 10659 10668 10677 10683 10688 10694 10699 10705 10708 10710 10714 10718 10720 10724 10728 10733 10738 10742 10744 10747 10749 10750 10750 10750 10751 10752 10752 10752 10754 10756 10759 10760 10762 10764 10766 10769 10773 10776 10778 10780 10783 10788 10792 10796 10800 10805 10812 10818 10820 10818 10817 10817 10817 10817 10819 10822 10823 10824 10822 10821 10823 10825 10825 10823 10823 10825 10826 10828 10830 10828 10824 10823 10825 10821 10810 10801
10550 10560 10570 10583 10596 10604 10613 10622 10629 10636 10644 10651 10658 10665 10671 10676 10682 10688 10693 10696 10699 10702 10707 10710 10714 10720 10725 10730 10734 10737 10740 10741 10742 10743 10743 10743 10744 10746 10746 10746 10748 10749 10751 10753 10755 10757 10760 10764 10767 10770 10771 10773 10778 10782 10785 10790 10797 10803 10807 10807 10803 10802 10804 10807 10810 10814 10818 10819 10820 10818 10816 10818 10820 10818 10814 10815 10820 10822 10822 10822 10819 10816 10818 10820 10813 10802 10794
10540 10553 10561 10569 10579 10590 10601 10610 10617 10625 10635 10643 10648 10653 10659 10665 10671 10676 10680 10684 10689 10693 10697 10702 10706 10711 10717 10722 10726 10729 10731 10732 10734 10735 10735 10735 10736 10738 10739 10740 10740 10741 10743 10745 10747 10749 10752 10755 10758 10761 10763 10764 10767 10770 10773 10778 10782 10784 10785 10784 10784 10786 10790 10795 10802 10808 10812 10814 10816 10815 10813 10813 10815 10812 10807 10806 10810 10812 10811 10812 10812 10811 10811 10809 10801 10792 10787
10530 10544 10552 10555 10564 10578 10592 10600 10604 10613 10626 10634 10638 10643 10649 10655 10660 10666 10670 10675 10680 10685 10689 10693 10697 10701 10707 10712 10716 10719 10721 10723 10725 10726 10727 10727 10728 10729 10731 10732 10733 10734 10735 10737 10740 10742 10744 10746 10749 10751 10753 10755 10757 10759 10761 10764 10769 10772 10773 10773 10774 10778 10783 10789 10797 10803 10807 10809 10812 10813 10811 10808 10807 10807 10803 10800 10801 10803 10803 10804 10805 10804 10802 10797 10790 10785 10782
10521 10532 10540 10544 10551 10566 10581 10588 10593 10602 10616 10625 10629 10635 10642 10647 10652 10658 10662 10667 10672 10677 10680 10683 10687 10692 10697 10702 10706 10709 10711 10714 10716 10718 10718 10719 10720 10721 10723 10724 10726 10728 10729 10731 10733 10735 10736 10738 10740 10741 10743 10745 10746 10748 10749 10752 10755 10759 10763 10764 10766 10770 10777 10785 10793 10801 10807 10811 10810 10807 10807 10805 10802 10800 10797 10795 10796 10797 10797 10796 10796 10795 10793 10789 10785 10782 10778
10513 10522 10530 10536 10543 10555 10568 10578 10585 10596 10608 10616 10622 10628 10635 10641 10646 10652 10656 10660 10664 10668 10671 10674 10678 10682 10687 10692 10697 10700 10703 10705 10708 10709 10711 10711 10712 10714 10716 10717 10719 10721 10723 10724 10726 10727 10728 10730 10731 10732 10734 10735 10735 10736 10738 10740 10743 10746 10751 10754 10757 10762 10770 10778 10785 10797 10812 10820 10813 10802 10801 10805 10803 10795 10790 10789 10789 10790 10790 10790 10789 10787 10784 10781 10778 10776 10772
10507 10515 10525 10534 10541 10547 10556 10567 10579 10589 10598 10606 10614 10621 10628 10635 10641 10646 10649 10652 10656 10659 10662 10665 10669 10673 10678 10684 10689 10692 10694 10697 10699 10701 10703 10705 10706 10707 10709 10711 10713 10715 10716 10718 10718 10719 10721 10722 10722 10724 10725 10726 10727 10728 10729 10732 10735 10738 10742 10744 10748 10755 10762 10766 10771 10781 10794 10804 10803 10797 10795 10797 10794 10787 10783 10783 10783 10783 10783 10784 10782 10779 10775 10773 10771 10770 10767
10501 10510 10521 10531 10538 10544 10551 10560 10570 10580 10589 10597 10605 10613 10620 10627 10633 10637 10640 10644 10648 10652 10655 10658 10662 10667 10671 10676 10681 10684 10686 10688 10690 10693 10696 10698 10699 10701 10702 10704 10706 10708 10710 10711 10712 10713 10714 10714 10715 10717 10718 10719 10721 10722 10724 10727 10729 10732 10735 10738 10741 10748 10752 10753 10758 10766 10772 10776 10782 10783 10781 10779 10778 10777 10777 10777 10777 10776 10776 10774 10772 10770 10768 10766 10765 10764 10762
10498 10507 10516 10525 10533 10541 10548 10555 10563 10573 10582 10589 10598 10607 10615 10620 10623 10628 10633 10637 10641 10645 10648 10651 10655 10660 10664 10669 10673 10675 10677 10679 10682 10685 10688 10690 10692 10694 10696 10697 10699 10701 10702 10704 10706 10707 10707 10708 10710 10712 10713 10714 10715 10716 10718 10721 10723 10725 10728 10730 10733 10740 10743 10744 10747 10753 10757 10761 10765 10767 10764 10764 10767 10768 10768 10767 10767 10767 10766 10765 10765 10764 10763 10762 10760 10758 10754
10496 10504 10512 10520 10528 10536 10544 10552 10560 10569 10576 10583 10592 10601 10607 10611 10615 10621 10627 10631 10635 10638 10641 10644 10648 10653 10657 10661 10664 10667 10669 10672 10675 10677 10679 10682 10685 10687 10689 10691 10693 10695 10697 10699 10700 10701 10702 10703 10706 10708 10708 10708 10710 10713 10715 10717 10719 10721 10724 10726 10729 10732 10736 10737 10740 10743 10746 10750 10754 10756 10755 10755 10757 10758 10758 10757 10757 10758 10758 10759 10759 10758 10757 10755 10753 10749 10745
10492 10500 10509 10516 10524 10532 10542 10551 10558 10564 10570 10578 10587 10594 10599 10605 10611 10617 10621 10625 10628 10631 10633 10636 10641 10645 10649 10653 10656 10659 10662 10665 10667 10670 10672 10674 10678 10680 10682 10685 10688 10690 10692 10693 10695 10697 10699 10701 10702 10704 10704 10704 10708 10712 10714 10716 10719 10720 10721 10724 10726 10727 10729 10731 10734 10736 10738 10742 10746 10749 10749 10748 10748 10749 10749 10749 10750 10752 10753 10754 10753 10751 10749 10746 10743 10739 10736
10488 10497 10505 10512 10520 10529 10540 10550 10557 10562 10569 10576 10583 10590 10597 10603 10608 10612 10615 10618 10621 10623 10626 10630 10634 10638 10642 10646 10649 10653 10656 10658 10660 10662 10665 10668 10671 10673 10676 10680 10684 10685 10686 10687 10690 10694 10698 10698 10698 10698 10699 10702 10706 10710 10711 10714 10718 10719 10717 10718 10720 10722 10723 10726 10730 10731 10733 10735 10739 10741 10741 10740 10740 10740 10741 10743 10745 10747 10747 10747 10745 10743 10739 10736 10733 10731 10730
10486 10494 10502 10509 10517 10527 10539 10549 10556 10563 10570 10575 10581 10587 10594 10599 10603 10605 10607 10609 10613 10617 10621 10625 10628 10632 10637 10640 10643 10646 10649 10651 10654 10656 10659 10662 10664 10667 10671 10675 10679 10680 10680 10682 10685 10688 10692 10693 10693 10693 10695 10699 10702 10705 10706 10709 10715 10717 10715 10712 10713 10715 10717 10719 10723 10725 10727 10729 10730 10731 10732 10733 10734 10736 10738 10740 10739 10738 10738 10738 10737 10734 10729 10726 10724 10724 10723
10486 10494 10501 10508 10517 10528 10538 10547 10554 10561 10567 10573 10578 10584 10589 10593 10596 10599 10600 10603 10608 10613 10617 10620 10624 10627 10631 10634 10637 10640 10642 10645 10648 10650 10654 10656 10658 10660 10665 10669 10672 10674 10676 10678 10681 10685 10687 10688 10687 10689 10692 10695 10698 10701 10704 10707 10713 10718 10717 10712 10709 10709 10711 10712 10715 10718 10720 10721 10723 10726 10729 10731 10732 10732 10732 10732 10730 10729 10729 10728 10727 10724 10721 10718 10717 10716 10714
10486 10494 10502 10510 10520 10529 10538 10546 10552 10557 10562 10567 10574 10580 10585 10588 10590 10593 10596 10600 10604 10608 10612 10615 10618 10621 10625 10628 10631 10633 10636 10639 10642 10644 10647 10650 10651 10654 10658 10662 10665 10667 10670 10674 10677 10681 10683 10682 10682 10684 10688 10691 10693 10697 10700 10703 10707 10714 10718 10714 10707 10703 10703 10705 10707 10710 10713 10716 10718 10721 10724 10725 10725 10724 10723 10722 10721 10720 10718 10716 10715 10714 10712 10711 10709 10707 10705
10487 10495 10504 10512 10520 10528 10537 10543 10549 10554 10559 10564 10570 10576 10579 10582 10584 10587 10591 10595 10599 10603 10606 10609 10612 10615 10618 10621 10624 10627 10630 10632 10635 10638 10641 10643 10645 10648 10652 10655 10657 10659 10662 10665 10668 10670 10672 10672 10672 10676 10681 10684 10686 10689 10692 10696 10700 10704 10707 10707 10704 10700 10698 10700 10702 10704 10706 10709 10712 10713 10714 10715 10715 10714 10713 10712 10711 10709 10708 10706 10705 10704 10703 10702 10700 10697 10695
10489 10497 10505 10513 10520 10527 10534 10540 10546 10553 10559 10563 10567 10571 10573 10575 10578 10582 10586 10590 10595 10599 10601 10604 10606 10609 10612 10615 10619 10622 10624 10626 10629 10632 10635 10637 10639 10642 10644 10647 10649 10651 10654 10656 10659 10661 10663 10664 10665 10668 10672 10676 10678 10681 10685 10689 10693 10695 10696 10699 10703 10702 10697 10695 10697 10698 10699 10701 10703 10704 10705 10705 10704 10702 10701 10701 10700 10699 10698 10696 10695 10694 10693 10692 10690 10688 10686
10491 10499 10506 10513 10521 10528 10534 10540 10547 10552 10555 10558 10560 10563 10565 10569 10573 10578 10582 10586 10591 10594 10596 10599 10601 10604 10607 10610 10613 10615 10618 10620 10623 10626 10628 10631 10632 10634 10637 10639 10642 10644 10646 10648 10650 10653 10656 10658 10660 10662 10665 10667 10671 10675 10679 10681 10684 10688 10690 10693 10696 10695 10690 10687 10688 10690 10691 10693 10694 10695 10694 10693 10690 10687 10687 10687 10687 10687 10686 10685 10684 10684 10684 10683 10682 10680 10678
10493 10500 10507 10515 10522 10529 10534 10540 10544 10545 10547 10549 10551 10554 10558 10564 10569 10573 10578 10582 10586 10589 10592 10594 10596 10599 10601 10604 10607 10609 10611 10614 10616 10619 10621 10624 10625 10627 10629 10632 10635 10637 10639 10641 10643 10645 10648 10651 10653 10656 10659 10661 10662 10665 10669 10672 10675 10678 10680 10681 10682 10682 10680 10678 10678 10680 10681 10682 10682 10681 10678 10675 10674 10673 10673 10674 10676 10677 10677 10676 10675 10676 10676 10675 10673 10671 10669
10496 10502 10509 10516 10521 10526 10531 10534 10536 10537 10539 10542 10546 10549 10554 10560 10565 10570 10575 10579 10583 10585 10587 10589 10591 10594 10596 10598 10601 10604 10605 10607 10609 10612 10614 10617 10619 10621 10623 10626 10629 10631 10632 10634 10636 10638 10640 10643 10646 10650 10653 10654 10654 10656 10659 10662 10665 10667 10669 10670 10670 10672 10671 10669 10668 10669 10672 10672 10671 10667 10664 10663 10664 10664 10664 10666 10668 10669 10668 10667 10668 10668 10667 10665 10663 10661 10660
10498 10504 10509 10514 10518 10522 10524 10526 10529 10532 10537 10541 10545 10549 10553 10558 10563 10568 10573 10577 10579 10581 10583 10585 10587 10590 10592 10594 10596 10598 10600 10601 10603 10605 10607 10610 10612 10614 10617 10619 10622 10624 10625 10626 10628 10630 10633 10636 10639 10642 10644 10646 10647 10648 10650 10653 10655 10657 10658 10659 10661 10662 10661 10661 10661 10662 10664 10663 10661 10659 10658 10658 10659 10658 10657 10658 10660 10660 10659 10659 10658 10658 10657 10655 10653 10651 10650
10497 10502 10507 10511 10515 10518 10520 10523 10526 10531 10535 10539 10544 10548 10552 10557 10562 10566 10570 10573 10575 10577 10579 10581 10584 10586 10588 10589 10591 10592 10594 10596 10597 10599 10601 10603 10606 10608 10610 10613 10615 10617 10618 10619 10621 10623 10625 10628 10630 10633 10635 10637 10639 10641 10642 10644 10645 10646 10647 10648 10649 10650 10650 10651 10651 10653 10653 10651 10648 10647 10649 10651 10651 10650 10649 10649 10650 10651 10650 10649 10649 10648 10646 10645 10643 10641 10640
10495 10498 10502 10506 10509 10512 10515 10518 10522 10527 10532 10537 10541 10546 10550 10555 10559 10563 10566 10568 10571 10573 10575 10577 10580 10581 10583 10584 10585 10587 10588 10590 10591 10593 10595 10597 10599 10601 10604 10607 10609 10610 10611 10613 10614 10615 10617 10619 10622 10624 10627 10629 10630 10632 10634 10634 10635 10636 10637 10637 10638 10640 10641 10641 10641 10641 10641 10639 10637 10637 10640 10641 10642 10642 10642 10641 10641 10640 10640 10639 10639 10638 10636 10634 10633 10632 10632
10493 10496 10499 10501 10503 10507 10510 10515 10520 10526 10532 10536 10540 10543 10547 10551 10555 10558 10561 10563 10566 10568 10570 10573 10575 10576 10577 10579 10580 10582 10583 10584 10586 10587 10589 10591 10594 10596 10598 10600 10602 10604 10604 10605 10606 10608 10609 10611 10613 10616 10618 10620 10621 10623 10624 10625 10626 10627 10627 10627 10628 10630 10631 10631 10631 10631 10630 10629 10628 10628 10629 10630 10631 10632 10632 10632 10631 10630 10629 10629 10629 10628 10626 10624 10624 10623 10623
10492 10496 10499 10501 10504 10508 10512 10516 10522 10527 10532 10535 10538 10541 10545 10548 10551 10554 10556 10559 10561 10563 10565 10568 10569 10571 10572 10574 10575 10576 10578 10579 10580 10582 10584 10586 10588 10591 10592 10594 10596 10597 10598 10598 10599 10600 10602 10603 10605 10606 10608 10610 10611 10613 10614 10615 10616 10618 10619 10619 10619 10620 10621 10622 10623 10622 10621 10619 10618 10618 10618 10620 10621 10621 10621 10621 10621 10620 10619 10619 10619 10618 10617 10616 10616 10615 10615
10493 10496 10499 10502 10505 10508 10512 10517 10521 10525 10528 10531 10534 10538 10541 10544 10546 10549 10551 10553 10555 10558 10560 10562 10563 10565 10567 10568 10569 10571 10572 10573 10575 10577 10579 10581 10584 10586 10587 10589 10590 10590 10591 10591 10592 10593 10594 10595 10597 10598 10599 10600 10602 10603 10604 10605 10607 10609 10610 10610 10611 10611 10612 10612 10613 10612 10611 10609 10609 10609 10610 10612 10612 10611 10611 10611 10610 10610 10610 10610 10611 10611 10610 10609 10608 10606 10604
10494 10496 10499 10501 10503 10506 10510 10514 10517 10520 10523 10526 10530 10533 10535 10537 10540 10542 10544 10546 10549 10551 10553 10556 10558 10560 10561 10563 10564 10565 10567 10569 10570 10572 10574 10576 10578 10580 10581 10582 10583 10584 10584 10585 10586 10586 10587 10588 10590 10591 10592 10593 10594 10595 10595 10596 10598 10599 10599 10600 10601 10602 10602 10601 10601 10601 10600 10599 10600 10601 10602 10603 10603 10602 10602 10601 10600 10600 10601 10602 10603 10604 10602 10599 10597 10595 10593
10491 10494 10496 10498 10501 10503 10506 10509 10512 10515 10518 10521 10524 10527 10529 10530 10532 10535 10537 10540 10542 10544 10547 10549 10551 10553 10554 10556 10557 10559 10561 10562 10564 10566 10567 10568 10570 10571 10572 10574 10575 10576 10577 10578 10579 10580 10580 10581 10583 10584 10586 10586 10587 10587 10588 10588 10589 10589 10589 10590 10591 10592 10593 10592 10591 10591 10590 10589 10589 10590 10591 10592 10592 10592 10592 10592 10591 10590 10590 10591 10593 10594 10592 10590 10589 10587 10585
10486 10488 10490 10493 10496 10498 10501 10504 10506 10509 10512 10515 10517 10519 10521 10523 10525 10527 10530 10532 10534 10537 10539 10542 10544 10546 10547 10549 10550 10552 10553 10555 10556 10557 10559 10560 10561 10562 10563 10565 10566 10568 10569 10571 10572 10573 10574 10574 10575 10576 10577 10577 10578 10578 10578 10579 10580 10580 10580 10580 10581 10582 10583 10583 10582 10581 10580 10579 10579 10579 10580 10580 10580 10581 10582 10582 10582 10581 10580 10581 10582 10583 10584 10583 10582 10579 10577
10481 10483 10485 10488 10491 10493 10496 10498 10501 10503 10506 10508 10510 10512 10513 10515 10518 10520 10523 10525 10528 10530 10532 10534 10536 10538 10539 10541 10542 10543 10545 10546 10548 10549 10550 10552 10553 10554 10555 10557 10558 10559 10560 10562 10563 10564 10565 10566 10567 10568 10568 10568 10568 10568 10569 10569 10570 10571 10570 10570 10571 10571 10571 10571 10571 10570 10570 10570 10569 10569 10569 10569 10569 10570 10571 10571 10571 10572 10572 10571 10571 10572 10573 10573 10572 10570 10568
10478 10480 10482 10484 10487 10489 10492 10494 10496 10499 10500 10502 10504 10505 10507 10509 10512 10514 10517 10519 10521 10523 10524 10526 10528 10529 10531 10532 10533 10534 10536 10538 10539 10540 10542 10543 10544 10545 10546 10548 10549 10549 10551 10552 10553 10553 10554 10556 10558 10558 10559 10560 10560 10560 10560 10560 10561 10561 10561 10561 10561 10560 10560 10560 10560 10560 10560 10560 10560 10559 10559 10558 10559 10559 10559 10560 10561 10562 10562 10562 10561 10561 10561 10560 10560 10558 10557
10475 10477 10479 10481 10483 10485 10487 10489 10490 10492 10494 10496 10498 10499 10501 10503 10506 10508 10510 10512 10513 10514 10516 10517 10519 10521 10522 10523 10524 10525 10527 10529 10530 10531 10531 10532 10534 10535 10536 10537 10538 10539 10540 10541 10542 10542 10543 10545 10546 10547 10548 10550 10550 10551 10551 10551 10551 10551 10551 10552 10552 10550 10550 10550 10550 10550 10550 10550 10550 10550 10549 10549 10549 10548 10547 10548 10549 10550 10551 10550 10549 10549 10548 10548 10548 10547 10545
10471 10473 10474 10476 10478 10480 10481 10483 10484 10485 10487 10489 10491 10493 10495 10498 10500 10502 10503 10504 10505 10506 10507 10508 10510 10511 10513 10514 10515 10516 10517 10519 10520 10520 10520 10520 10522 10523 10524 10525 10527 10528 10529 10529 10530 10531 10532 10533 10534 10534 10536 10538 10539 10539 10540 10540 10540 10540 10540 10541 10541 10541 10540 10539 10539 10539 10539 10539 10539 10539 10539 10538 10536 10535 10535 10536 10537 10537 10538 10537 10537 10537 10536 10536 10535 10534 10532
10466 10467 10469 10470 10472 10474 10475 10476 10477 10479 10481 10483 10485 10487 10489 10491 10493 10494 10496 10497 10498 10498 10499 10499 10500 10501 10504 10506 10507 10507 10507 10508 10509 10509 10509 10509 10509 10510 10512 10513 10515 10516 10516 10517 10518 10519 10519 10520 10521 10522 10523 10525 10527 10528 10528 10529 10529 10529 10529 10529 10529 10529 10528 10527 10527 10526 10526 10526 10526 10526 10525 10524 10523 10522 10522 10523 10524 10524 10524 10523 10523 10523 10523 10522 10521 10520 10519
10459 10460 10462 10463 10465 10466 10467 10469 10470 10472 10474 10476 10478 10479 10481 10482 10484 10486 10488 10489 10489 10489 10489 10489 10490 10491 10494 10495 10496 10496 10496 10496 10497 10497 10497 10497 10498 10498 10500 10501 10503 10504 10504 10505 10505 10506 10507 10508 10509 10510 10511 10512 10514 10515 10516 10516 10517 10517 10517 10517 10516 10516 10516 10515 10513 10512 10512 10512 10512 10512 10512 10511 10511 10510 10509 10509 10510 10511 10510 10510 10509 10509 10508 10508 10507 10506 10505